Date,TemperatureHighF,TemperatureAvgF,TemperatureLowF,DewpointHighF,DewpointAvgF,DewpointLowF,HumidityHigh,HumidityAvg,HumidityLow,PressureMaxIn,PressureMinIn,WindSpeedMaxMPH,WindSpeedAvgMPH,GustSpeedMaxMPH,PrecipitationSumIn
2013-1-1,64,51,42,43,35,23,78,57,36,30.27,30.04,8,2,11,0.00
2013-1-2,66,53,44,46,31,17,76,47,16,30.16,30.06,11,3,14,0.00
2013-1-3,65,52,42,48,34,21,73,51,23,30.22,30.07,9,3,14,0.00
2013-1-4,66,52,42,46,29,12,76,44,16,30.29,30.20,6,3,10,0.00
2013-1-5,63,52,41,49,37,23,85,59,29,30.32,30.21,8,3,11,4.07
2013-1-6,140,80,41,100,62,32,99,82,38,30.24,29.97,9,3,14,0.19
2013-1-7,64,53,45,48,43,34,94,71,36,30.12,30.00,11,3,19,0.02
2013-1-8,65,54,44,52,44,35,88,71,43,30.14,30.04,7,2,10,0.00
2013-1-9,68,55,47,54,47,38,95,77,40,30.16,30.05,11,3,14,0.00
2013-1-10,57,54,50,51,42,30,92,65,45,30.12,30.00,17,8,27,0.00
2013-1-11,56,48,38,36,29,21,76,49,29,30.23,30.10,18,4,25,0.02
2013-1-12,59,46,36,36,31,21,83,58,25,30.20,30.09,10,2,13,0.07
2013-1-13,58,47,36,34,29,21,71,51,26,30.19,30.08,11,3,13,0.00
2013-1-14,62,48,39,30,15,5,65,29,17,30.37,30.15,12,4,17,0.00
2013-1-15,59,48,37,39,22,6,72,39,18,30.48,30.35,14,3,19,0.00
2013-1-16,64,52,40,49,36,23,75,55,22,30.39,30.14,11,3,17,0.00
2013-1-17,77,59,46,51,32,16,73,40,12,30.18,30.07,8,2,10,0.00
2013-1-18,75,61,51,49,30,18,68,32,13,30.15,30.07,7,3,9,0.00
2013-1-19,75,62,53,46,26,19,45,26,15,30.20,30.09,8,3,11,0.00
2013-1-20,79,61,52,49,29,16,57,33,12,30.15,30.02,9,3,11,0.07
2013-1-21,77,62,52,63,26,12,97,27,14,30.11,30.02,11,3,13,0.00
2013-1-22,84,62,49,44,25,12,44,25,11,30.11,30.04,7,2,10,0.00
2013-1-23,77,64,57,50,37,23,70,37,21,30.16,30.03,8,2,10,0.00
2013-1-24,73,62,58,56,51,42,89,66,52,30.23,30.10,8,2,12,0.04
2013-1-25,65,61,58,61,58,55,99,92,85,30.16,29.96,11,2,13,0.34
2013-1-26,64,58,56,63,58,56,99,99,93,30.05,29.91,8,2,9,0.08
2013-1-27,62,55,52,56,49,44,99,80,56,30.10,30.02,14,6,17,0.03
2013-1-28,60,53,46,46,41,33,83,64,39,30.22,30.05,14,4,19,0.00
2013-1-29,62,52,46,49,44,39,85,73,57,30.27,30.19,10,4,15,0.00
2013-1-30,67,55,44,50,45,41,90,72,52,30.37,30.24,9,2,12,0.00
2013-1-31,52,50,49,44,43,42,77,76,73,30.27,30.24,2,1,4,0.00
2013-2-1,60,57,54,54,52,49,96,86,74,30.20,30.13,2,0,4,0.00
2013-2-2,72,59,52,55,50,42,86,73,48,30.21,30.12,8,2,11,0.00
2013-2-3,69,61,54,56,52,48,96,75,53,30.16,30.05,10,2,12,0.00
2013-2-4,58,53,48,54,51,47,99,94,83,30.15,30.03,7,2,9,0.61
2013-2-5,56,53,51,52,50,48,98,89,79,30.15,30.03,5,2,8,0.00
2013-2-6,63,56,50,50,48,47,90,76,61,30.15,30.03,8,3,12,0.00
2013-2-7,62,54,48,52,48,42,95,80,64,30.17,30.05,11,4,14,0.00
2013-2-8,58,51,44,47,42,38,87,72,56,30.07,29.94,20,6,26,0.15
2013-2-9,61,50,41,43,41,38,93,72,48,30.15,29.97,9,3,14,0.00
2013-2-10,61,51,44,45,41,39,84,71,47,30.15,30.06,9,2,11,0.00
2013-2-11,60,51,42,48,43,39,89,75,58,30.27,30.08,11,3,15,0.00
2013-2-12,61,51,40,49,42,33,90,73,49,30.38,30.26,11,3,16,0.00
2013-2-13,63,52,40,53,44,36,95,76,40,30.29,30.17,10,3,12,0.00
2013-2-14,63,54,43,53,47,40,95,80,64,30.24,30.09,8,3,11,0.00
2013-2-15,79,63,50,51,35,16,78,39,13,30.19,30.13,9,3,13,0.00
2013-2-16,79,64,54,54,31,16,61,30,14,30.16,30.01,9,3,12,0.00
2013-2-17,63,55,48,53,45,35,87,71,38,30.07,29.97,13,4,17,0.00
2013-2-18,61,55,52,48,46,42,82,72,60,30.10,30.01,11,4,16,0.00
2013-2-19,56,52,46,49,44,40,95,73,59,30.04,29.78,18,6,26,0.11
2013-2-20,59,52,45,46,38,30,84,60,40,30.06,29.76,21,8,30,0.00
2013-2-21,62,52,45,47,42,37,87,70,53,30.14,30.01,10,3,14,0.00
2013-2-22,63,52,41,50,44,38,91,76,55,30.24,30.13,8,3,11,0.00
2013-2-23,62,53,43,50,45,38,87,75,58,30.20,29.98,8,3,11,0.00
2013-2-24,72,55,45,47,38,14,87,58,12,30.23,30.01,14,4,19,0.00
2013-2-25,65,54,42,50,37,19,86,56,22,30.25,30.12,9,3,12,0.00
2013-2-26,63,53,41,51,39,27,84,60,35,30.14,30.02,10,3,14,0.00
2013-2-27,72,58,50,48,33,14,68,41,12,30.29,30.13,12,4,17,0.00
2013-2-28,74,60,41,51,30,16,57,34,13,30.32,29.97,11,4,16,0.00
2013-3-1,81,72,55,49,34,19,47,26,11,30.27,30.18,8,4,11,0.00
2013-3-2,81,44,41,34,31,22,38,37,12,30.21,29.97,3,1,5,0.00
2013-3-3,60,47,41,55,39,32,90,54,38,30.08,29.97,5,2,7,0.00
2013-3-4,140,104,53,100,79,50,91,80,65,30.14,30.03,10,3,13,0.00
2013-3-5,140,77,54,100,62,47,89,81,62,30.17,30.08,8,3,12,0.00
2013-3-6,59,55,53,47,45,44,78,70,60,30.19,30.14,8,4,11,0.00
2013-3-8,105,75,48,100,67,39,99,78,49,30.08,29.88,14,5,24,1.61
2013-3-9,109,101,95,100,97,94,99,88,69,30.23,30.06,14,5,21,0.02
2013-3-10,114,99,56,100,94,45,99,87,66,30.27,30.08,11,4,17,1.63
2013-3-11,113,82,51,96,-2,-100,98,53,1,30.28,30.08,9,3,13,1.63
2013-3-12,65,54,45,55,51,44,99,90,68,30.12,30.03,8,2,11,0.00
2013-3-13,64,54,50,56,53,49,99,93,74,30.15,30.07,8,2,10,0.00
2013-3-14,60,54,50,56,52,49,99,94,82,30.12,30.05,9,2,12,0.00
2013-3-15,140,80,52,100,66,51,99,95,70,30.09,29.97,8,2,11,0.00
2013-3-16,140,140,140,100,100,100,99,98,89,29.99,29.91,8,3,14,0.00
2013-3-17,140,140,140,100,100,100,99,95,84,30.02,29.94,10,3,14,0.00
2013-3-18,140,140,140,100,100,100,99,94,81,30.11,30.00,10,3,13,0.00
2013-3-19,140,126,57,100,92,53,99,91,70,30.13,30.05,11,3,12,0.00
2013-3-20,140,114,55,100,86,54,96,88,67,30.12,30.02,8,2,12,0.00
2013-3-21,66,59,53,57,54,51,96,84,67,30.03,29.84,9,3,16,0.00
2013-3-22,65,59,53,54,52,50,89,78,65,29.96,29.84,10,4,13,0.00
2013-3-23,69,58,52,56,52,50,91,80,56,30.06,29.94,9,3,12,1.63
2013-3-24,66,57,49,57,53,48,99,87,70,30.05,29.93,8,3,12,0.00
2013-3-25,68,59,53,57,54,51,96,86,68,30.01,29.93,19,2,99,0.20
2013-3-26,65,59,55,55,53,51,95,82,66,30.01,29.95,19,5,99,1.63
2013-3-27,65,59,55,53,52,50,86,77,64,30.09,29.96,11,3,12,0.00
2013-3-28,66,59,54,57,53,50,90,83,70,30.12,30.03,10,3,14,1.63
2013-3-29,66,59,57,56,54,53,89,83,67,30.16,30.08,9,3,11,0.00
2013-3-30,68,59,54,57,54,51,90,82,64,30.17,30.09,11,3,14,0.00
2013-3-31,68,60,54,58,54,50,91,80,62,30.17,30.10,11,4,15,0.00
2013-4-1,66,60,56,55,53,49,90,78,61,30.20,30.11,14,6,17,0.00
2013-4-2,67,60,56,56,53,51,88,79,65,30.13,30.03,10,3,12,0.00
2013-4-3,64,58,54,56,53,51,90,83,69,30.13,30.04,11,3,14,0.00
2013-4-4,66,60,56,57,54,53,93,84,70,30.15,30.05,11,3,14,0.00
2013-4-5,67,60,57,58,55,54,92,83,69,30.14,30.04,10,4,14,0.00
2013-4-6,68,61,58,57,54,52,86,79,65,30.12,30.01,11,4,13,0.00
2013-4-7,140,76,57,100,40,-100,99,70,1,30.02,29.84,10,3,14,0.00
2013-4-8,140,102,56,100,20,-100,99,55,1,29.85,29.75,17,6,24,0.01
2013-4-9,117,108,100,100,-89,-100,99,6,1,30.03,29.85,12,4,15,0.00
2013-4-10,122,110,98,100,-54,-100,99,23,1,30.11,30.01,9,3,11,0.00
2013-4-11,114,108,101,100,-49,-100,99,26,1,30.04,29.95,11,4,15,0.00
2013-4-13,66,56,55,51,50,38,82,79,35,29.96,29.91,10,5,13,0.00
2013-4-14,60,56,54,54,50,48,87,81,74,29.93,29.87,12,5,18,0.00
2013-4-15,66,57,54,55,52,45,95,82,63,29.97,29.88,11,4,16,0.07
2013-4-16,63,56,52,46,44,41,77,64,51,30.04,29.92,12,5,17,0.00
2013-4-17,68,58,48,49,42,24,84,57,28,30.14,30.03,21,6,29,0.01
2013-4-18,82,64,51,51,32,15,61,33,11,30.21,30.13,17,5,23,0.00
2013-4-19,73,64,51,56,43,22,79,48,19,30.18,30.01,11,4,15,0.00
2013-4-20,73,63,51,59,51,39,95,67,32,30.05,29.92,8,3,11,0.00
2013-4-21,66,60,55,58,56,54,99,87,73,30.05,29.96,12,3,17,0.00
2013-4-22,65,59,56,55,54,52,93,83,69,30.04,29.95,11,3,14,0.00
2013-4-23,60,58,58,53,52,51,84,79,73,29.98,29.94,4,2,7,0.00
2013-4-24,63,60,58,56,53,51,88,80,69,30.01,29.94,8,2,11,0.02
2013-4-25,69,62,57,56,54,50,90,76,55,30.15,29.99,11,3,13,1.74
2013-4-26,69,62,54,59,56,52,95,80,66,30.19,30.13,11,4,16,0.00
2013-4-27,64,61,59,57,56,55,92,85,77,30.19,30.05,9,2,11,0.00
2013-4-28,66,60,58,59,57,55,96,89,76,30.07,29.91,9,3,12,0.00
2013-4-29,66,60,57,57,56,54,94,84,70,29.95,29.83,10,4,16,0.00
2013-4-30,66,61,58,57,55,52,88,80,69,29.94,29.86,15,5,20,0.00
2013-5-1,69,63,60,58,56,53,87,80,67,30.13,29.92,11,4,14,0.00
2013-5-2,76,65,58,62,58,55,89,78,55,30.14,30.01,11,4,16,0.00
2013-5-3,80,67,55,63,53,27,97,66,15,30.04,29.83,10,3,14,0.00
2013-5-4,68,62,58,61,56,55,99,83,67,29.90,29.80,16,6,22,0.00
2013-5-5,67,62,59,57,56,53,89,81,64,29.99,29.87,14,5,18,0.00
2013-5-6,68,62,58,60,58,55,99,87,71,30.05,29.96,12,5,17,0.26
2013-5-7,68,63,58,59,57,55,96,82,66,30.11,30.02,12,4,15,0.04
2013-5-8,69,63,59,59,56,53,94,79,64,30.14,30.09,13,4,17,0.00
2013-5-9,68,62,57,58,55,54,92,79,66,30.14,30.08,11,4,16,0.00
2013-5-10,70,64,60,60,57,55,85,77,65,30.12,30.07,11,3,14,0.00
2013-5-13,83,72,62,67,62,58,89,73,46,29.99,29.90,9,3,12,0.00
2013-5-14,69,65,61,62,60,58,93,84,74,30.02,29.94,9,2,12,0.00
2013-5-16,69,65,61,57,55,54,80,72,64,30.01,29.94,13,5,17,0.00
2013-5-17,69,64,61,59,56,53,82,77,68,30.04,29.94,12,4,17,0.00
2013-5-18,71,64,61,60,57,54,88,77,66,30.08,30.01,11,4,16,0.00
2013-5-19,70,64,59,60,57,55,91,78,67,30.03,29.93,12,3,15,0.00
2013-5-20,70,64,59,61,59,57,93,83,71,29.98,29.94,11,3,14,0.00
2013-5-21,70,65,62,62,59,58,90,83,72,29.97,29.96,10,3,14,0.00
2013-5-22,69,64,62,58,56,54,86,76,65,29.97,29.97,14,5,20,0.00
2013-5-23,70,63,56,58,54,52,85,74,64,29.97,29.97,15,6,24,0.00
2013-5-24,67,62,58,55,53,50,83,71,57,29.97,29.97,12,4,17,0.00
2013-5-25,69,62,59,58,53,49,83,72,53,29.97,29.97,11,4,17,0.00
2013-5-26,67,62,58,56,54,52,86,74,63,29.97,29.97,11,4,19,0.00
2013-5-27,68,62,56,59,56,47,89,80,65,29.97,29.97,13,4,21,2.05
2013-5-28,72,65,61,61,58,55,88,79,64,29.97,29.97,11,4,15,0.00
2013-5-29,73,65,61,61,58,9,89,80,62,30.01,29.97,8,3,14,0.38
2013-5-30,70,66,63,61,59,57,85,79,73,29.93,29.83,11,6,17,0.00
2013-5-31,140,80,61,100,67,57,99,86,71,29.94,29.89,9,3,12,0.00
2013-6-1,68,64,62,61,58,54,87,82,75,30.01,29.90,9,3,14,0.18
2013-6-2,68,63,62,60,58,57,89,84,77,29.97,29.97,12,4,15,0.00
2013-6-3,69,65,62,59,57,55,88,78,68,29.97,29.97,14,5,21,0.00
2013-6-4,70,66,61,60,57,55,84,74,64,29.97,29.97,11,4,16,0.00
2013-6-6,65,65,65,59,59,59,82,82,82,29.97,29.97,4,4,8,0.00
2013-6-9,41,41,41,32,32,32,38,38,38,29.97,29.97,1,1,0,0.00
2013-6-10,41,41,41,32,32,32,38,38,38,29.97,29.97,1,1,0,0.00
2013-6-11,64,63,62,60,59,59,88,87,85,29.94,29.90,7,1,7,0.02
2013-6-12,69,64,62,60,59,58,91,84,70,30.02,29.93,11,2,11,0.00
2013-6-13,68,65,63,60,59,58,86,81,71,30.02,29.91,12,2,12,0.00
2013-6-14,68,64,61,59,57,56,87,81,71,29.93,29.86,18,4,18,0.00
2013-6-15,68,63,60,57,56,54,84,76,67,29.98,29.89,15,3,15,0.00
2013-6-16,69,64,59,60,58,55,89,80,69,30.03,29.96,17,3,17,0.00
2013-6-17,69,64,60,61,59,58,91,84,73,29.98,29.90,13,2,13,0.00
2013-6-18,69,64,60,61,59,58,93,85,73,29.93,29.86,16,3,16,0.00
2013-6-19,70,65,61,62,59,56,91,80,70,29.87,29.82,15,3,16,0.00
2013-6-20,71,66,61,63,60,58,93,83,73,29.87,29.80,15,2,15,0.00
2013-6-21,70,65,61,62,60,58,94,83,73,29.91,29.82,16,3,16,0.00
2013-6-22,69,65,61,60,59,57,91,82,73,29.92,29.83,15,3,15,0.00
2013-6-23,68,64,61,59,57,55,86,79,70,29.89,29.81,17,4,17,0.00
2013-6-24,69,66,63,62,59,56,86,79,71,29.95,29.84,17,4,17,0.00
2013-6-25,71,67,65,65,62,60,92,84,76,30.00,29.91,13,4,20,0.00
2013-6-26,70,67,65,64,63,62,93,88,80,30.00,29.91,13,3,13,0.00
2013-6-27,74,67,64,67,64,62,96,90,79,30.03,29.97,12,2,12,0.00
2013-6-28,72,68,64,66,65,63,97,90,79,30.00,29.87,12,2,12,0.00
2013-6-29,71,68,65,67,66,64,97,91,84,29.88,29.73,11,2,11,0.00
2013-6-30,74,69,65,69,65,64,95,89,78,29.82,29.71,23,3,23,0.00
2013-7-1,75,69,65,68,66,63,95,89,79,29.89,29.81,11,2,11,0.00
2013-7-2,72,68,66,67,65,64,97,91,82,30.00,29.87,13,3,15,0.00
2013-7-3,71,67,65,67,65,63,96,92,86,29.93,29.81,12,2,12,0.00
2013-7-4,72,67,65,65,63,62,92,87,78,29.84,29.79,15,2,15,0.00
2013-7-5,72,67,65,65,63,62,91,86,77,29.85,29.78,15,3,15,0.00
2013-7-6,72,67,66,65,63,62,91,87,78,29.84,29.77,13,2,13,0.00
2013-7-7,72,68,66,65,64,62,92,88,78,29.86,29.77,15,2,15,0.00
2013-7-8,74,69,65,67,65,64,96,89,80,29.92,29.84,15,3,15,0.00
2013-7-9,74,70,66,68,66,64,95,88,78,30.02,29.90,15,3,15,0.00
2013-7-10,71,67,65,66,64,63,94,90,83,29.98,29.89,15,2,15,0.00
2013-7-11,71,67,65,66,64,62,94,89,81,29.97,29.89,16,3,16,0.00
2013-7-12,73,67,64,66,63,62,93,87,77,29.93,29.86,20,3,20,0.00
2013-7-13,70,66,63,65,63,61,94,88,82,29.95,29.88,20,3,20,0.00
2013-7-14,72,67,63,65,63,61,94,86,77,29.92,29.84,18,3,18,0.00
2013-7-15,73,67,63,66,63,61,95,86,76,29.87,29.81,23,3,23,0.00
2013-7-16,71,67,63,64,62,60,92,85,75,29.98,29.85,22,4,22,0.00
2013-7-17,72,66,58,65,62,56,96,86,75,30.01,29.96,23,4,23,0.00
2013-7-18,69,66,63,62,61,60,92,86,77,29.99,29.87,22,4,22,0.00
2013-7-19,67,64,62,62,60,58,92,87,81,29.91,29.85,18,4,18,0.00
2013-7-20,69,64,62,62,60,58,90,88,78,29.89,29.80,16,3,16,0.00
2013-7-21,68,64,63,62,61,60,92,88,81,29.92,29.79,20,3,20,0.00
2013-7-22,71,67,63,65,62,60,92,86,78,29.98,29.91,22,4,22,0.00
2013-7-23,71,67,64,64,62,61,92,85,76,30.03,29.94,23,5,23,0.00
2013-7-24,68,65,63,63,61,60,93,89,83,29.98,29.91,22,5,22,0.00
2013-7-25,69,64,61,62,60,60,96,89,77,30.02,29.92,14,3,18,0.00
2013-7-26,70,65,62,64,62,61,94,90,81,30.07,29.99,22,4,22,0.00
2013-7-27,67,63,61,63,61,58,94,91,83,30.02,29.90,18,3,18,0.00
2013-7-28,67,63,60,60,58,57,94,87,76,29.93,29.89,22,4,22,0.00
2013-7-29,67,63,60,59,57,56,90,82,72,30.04,29.91,20,4,22,0.00
2013-7-30,69,64,60,60,58,56,89,83,72,30.12,30.03,22,4,22,0.00
2013-7-31,67,63,60,60,58,55,89,83,74,30.11,30.01,22,4,22,0.00
2013-8-1,69,64,61,61,58,57,90,82,67,30.02,29.92,22,4,22,0.00
2013-8-2,69,64,61,59,58,57,87,81,70,29.98,29.91,25,5,25,0.00
2013-8-3,68,64,61,60,58,57,89,82,74,30.00,29.94,20,3,20,0.00
2013-8-4,69,64,60,61,59,58,91,85,73,30.01,29.93,22,3,23,0.00
2013-8-5,67,63,61,60,59,58,91,86,78,30.00,29.94,23,4,23,0.00
2013-8-6,67,63,61,60,58,57,91,84,75,30.04,29.96,22,4,22,0.00
2013-8-7,69,64,62,60,59,58,92,84,72,30.08,29.98,22,4,22,0.00
2013-8-8,68,63,60,61,59,58,94,87,75,30.00,29.91,22,4,22,0.00
2013-8-9,67,63,59,60,58,55,90,83,74,29.98,29.90,23,4,23,0.00
2013-8-10,67,62,59,58,57,56,90,82,70,30.04,29.97,20,3,20,0.00
2013-8-11,68,63,59,60,58,56,90,84,74,29.99,29.91,20,3,20,0.00
2013-8-12,67,63,60,61,59,57,92,86,79,29.97,29.91,20,3,20,0.00
2013-8-13,67,62,59,62,59,57,94,89,80,29.98,29.90,14,3,22,0.00
2013-8-14,65,62,60,61,60,58,94,91,85,29.93,29.86,16,2,16,0.00
2013-8-15,66,63,61,62,61,59,96,92,85,29.95,29.88,16,2,16,0.00
2013-8-16,70,65,60,65,62,59,96,90,81,29.96,29.90,18,3,18,0.00
2013-8-17,69,65,62,64,62,60,97,90,81,29.95,29.83,22,3,22,0.00
2013-8-18,69,64,62,63,61,60,96,89,78,29.91,29.82,20,4,20,0.00
2013-8-19,69,64,62,63,60,59,92,88,78,29.95,29.87,20,3,20,0.00
2013-8-20,69,65,62,64,61,60,93,89,80,29.93,29.84,22,4,22,0.00
2013-8-21,70,65,61,64,62,59,96,88,80,29.92,29.85,25,4,25,0.00
2013-8-22,72,66,60,64,61,58,95,86,73,29.92,29.82,22,3,22,0.00
2013-8-23,71,66,61,65,62,60,96,89,74,29.87,29.76,20,3,20,0.00
2013-8-24,68,64,61,62,61,60,96,90,80,29.89,29.78,20,3,20,0.00
2013-8-25,68,63,60,63,60,58,98,91,80,29.91,29.83,20,3,20,0.00
2013-8-26,72,67,63,65,63,60,94,87,74,29.92,29.81,22,3,22,0.00
2013-8-27,73,68,64,66,64,61,95,87,73,29.84,29.77,18,3,18,0.00
2013-8-28,73,68,64,66,63,62,96,86,74,29.88,29.76,18,3,18,0.00
2013-8-29,76,69,64,67,63,58,93,81,57,29.92,29.86,25,2,25,0.00
2013-8-30,84,76,68,70,66,61,86,73,59,29.97,29.89,15,2,15,0.00
2013-8-31,78,74,70,71,68,62,93,82,65,29.96,29.88,17,3,17,0.00
2013-9-1,75,71,67,69,67,65,97,88,76,29.93,29.85,25,4,25,0.00
2013-9-2,72,67,65,68,66,64,99,95,87,29.91,29.81,19,3,19,0.00
2013-9-3,76,71,66,69,67,65,97,89,75,29.90,29.81,19,3,19,0.00
2013-9-4,76,71,67,69,67,65,98,87,72,29.90,29.82,23,3,23,0.00
2013-9-5,77,72,68,69,66,63,96,85,64,29.89,29.82,21,4,21,0.00
2013-9-6,78,71,67,70,67,64,96,87,64,29.86,29.78,19,3,19,0.00
2013-9-7,76,70,66,70,67,63,96,89,73,29.86,29.80,17,3,17,0.00
2013-9-8,73,67,63,67,64,62,96,89,80,29.85,29.75,23,4,23,0.00
2013-9-9,70,66,62,65,62,60,96,89,80,29.82,29.75,21,4,21,0.00
2013-9-10,70,66,62,62,60,60,94,83,73,29.94,29.80,21,3,21,0.00
2013-9-11,70,66,62,62,60,59,93,83,73,29.99,29.92,25,4,25,0.00
2013-9-12,70,64,58,65,61,57,96,90,80,29.93,29.82,17,4,27,0.00
2013-9-13,71,65,60,65,62,59,98,92,81,29.84,29.67,21,2,21,0.01
2013-9-14,70,65,62,65,63,61,98,93,84,29.72,29.64,21,2,21,0.00
2013-9-15,72,66,62,67,64,62,98,92,83,29.77,29.70,21,3,21,0.00
2013-9-16,72,66,63,68,64,62,97,92,83,29.82,29.75,21,3,21,0.01
2013-9-17,69,65,63,63,62,59,97,88,78,29.82,29.73,17,3,17,0.00
2013-9-18,72,66,61,63,60,56,91,82,70,29.81,29.75,23,5,23,0.00
2013-9-19,72,67,63,65,62,60,92,85,75,29.83,29.76,23,4,23,0.00
2013-9-20,70,66,65,63,61,60,90,84,74,29.89,29.81,21,4,21,0.00
2013-9-21,72,68,65,63,61,60,91,80,65,29.90,29.81,23,5,25,0.00
2013-9-22,72,66,61,63,60,57,95,81,69,29.85,29.79,23,4,23,0.00
2013-9-23,75,67,58,65,60,54,92,78,56,29.89,29.78,21,4,21,0.00
2013-9-24,76,69,62,68,60,51,91,75,46,29.93,29.85,19,4,19,0.00
2013-9-25,71,66,61,64,61,57,96,83,72,29.87,29.73,36,7,36,0.00
2013-9-26,70,64,62,61,57,56,82,78,70,29.81,29.73,28,8,28,0.00
2013-9-27,72,65,54,64,55,48,88,72,48,29.98,29.87,19,5,19,0.00
2013-9-28,78,67,58,64,52,39,81,60,29,30.04,29.95,23,4,23,0.00
2013-9-29,75,67,57,66,56,42,95,69,36,30.05,29.97,21,4,21,0.00
2013-9-30,73,65,54,65,58,46,98,78,52,29.99,29.86,23,2,23,0.00
2013-10-1,71,65,57,64,60,54,98,86,74,29.94,29.88,25,5,25,0.00
2013-10-2,70,66,63,62,59,57,87,80,72,29.97,29.89,21,4,21,0.00
2013-10-3,70,66,63,62,59,57,87,80,69,29.94,29.84,25,4,25,0.00
2013-10-4,71,66,60,63,60,56,94,81,69,30.01,29.88,27,3,27,0.00
2013-10-5,90,71,58,60,42,13,95,41,6,30.09,30.01,27,5,27,0.00
2013-10-6,85,71,59,60,43,21,68,40,10,30.05,29.94,21,4,21,0.00
2013-10-7,76,67,60,66,55,35,94,69,28,29.97,29.91,21,4,21,0.00
2013-10-8,68,64,59,61,58,54,95,80,65,29.93,29.83,25,6,25,0.00
2013-10-9,64,61,58,56,53,48,92,75,65,29.83,29.74,40,12,40,0.15
2013-10-10,66,60,54,54,52,48,90,75,60,30.01,29.81,27,4,27,0.01
2013-10-11,68,61,52,60,55,48,91,82,64,30.04,29.93,28,5,28,0.00
2013-10-12,68,63,58,61,58,56,94,86,77,29.98,29.90,23,4,23,0.00
2013-10-13,68,62,56,58,56,53,91,79,63,30.01,29.92,27,3,27,0.00
2013-10-14,70,61,52,64,58,50,97,89,77,30.01,29.89,27,5,27,0.01
2013-10-15,77,66,56,62,53,40,98,67,28,29.96,29.88,17,2,17,0.00
2013-10-16,82,70,60,58,39,30,65,35,17,30.05,29.95,23,4,23,0.00
2013-10-17,75,65,56,62,47,33,90,55,22,30.02,29.92,17,3,17,0.00
2013-10-18,61,58,55,56,49,42,86,73,58,29.97,29.94,8,3,8,0.00
2013-10-19,68,60,53,62,58,51,98,91,65,30.01,29.95,11,2,19,0.01
2013-10-20,66,60,54,62,58,54,100,94,82,29.99,29.90,13,2,19,0.01
2013-10-21,66,60,54,61,58,54,99,92,81,29.99,29.91,19,3,19,0.00
2013-10-22,65,61,57,60,58,56,98,91,82,30.00,29.92,19,3,19,0.00
2013-10-23,67,63,62,60,58,56,92,83,73,29.97,29.91,23,3,23,0.00
2013-10-24,67,63,60,58,57,56,89,82,69,30.05,29.95,19,3,19,0.00
2013-10-25,65,63,60,59,58,56,89,82,78,30.11,30.04,25,8,25,0.00
2013-10-26,65,62,59,61,59,57,98,91,79,30.08,29.96,17,6,17,0.00
2013-10-27,64,61,58,60,58,56,99,92,83,29.98,29.84,19,3,19,0.00
2013-10-28,65,61,57,59,56,53,98,83,69,29.94,29.85,25,7,25,0.22
2013-10-29,64,59,54,56,54,51,97,84,67,30.01,29.92,19,4,19,0.17
2013-10-30,65,58,50,57,53,48,93,83,64,30.06,29.98,25,4,25,0.00
2013-10-31,69,60,50,60,53,45,94,79,44,30.08,29.98,21,4,21,0.00
2013-11-1,76,63,52,57,49,39,85,61,27,30.08,29.93,21,4,21,0.00
2013-11-2,71,63,56,63,51,37,95,68,32,29.99,29.89,28,5,28,0.00
2013-11-3,66,62,57,57,56,52,96,81,67,29.93,29.83,27,5,27,0.00
2013-11-4,64,60,55,55,53,52,91,78,68,29.93,29.79,25,4,25,0.00
2013-11-5,68,59,50,60,51,28,94,78,30,30.12,29.93,19,3,19,0.00
2013-11-6,70,62,54,59,35,19,79,38,22,30.19,30.07,27,4,27,0.00
2013-11-7,78,65,54,56,36,13,62,36,11,30.09,29.98,17,3,17,0.00
2013-11-8,71,61,54,62,50,29,99,69,29,30.04,29.93,17,3,17,0.01
2013-11-9,68,58,49,57,52,35,100,84,41,30.07,30.00,15,2,15,0.00
2013-11-10,77,62,52,60,45,28,92,59,18,30.13,30.01,15,3,15,0.00
2013-11-11,69,60,50,61,51,36,95,75,43,30.11,30.02,17,3,17,0.00
2013-11-12,71,61,54,62,57,49,97,86,60,30.15,30.04,23,2,23,0.01
2013-11-13,74,65,56,62,54,43,94,68,40,30.04,29.88,17,2,17,0.00
2013-11-14,78,69,59,61,50,40,98,56,28,29.92,29.78,13,3,13,0.00
2013-11-15,66,62,58,60,58,57,98,87,78,29.79,29.68,23,7,30,0.00
2013-11-16,65,60,56,57,53,48,90,76,55,29.94,29.76,25,6,25,0.00
2013-11-17,65,59,52,58,53,48,92,82,67,30.08,29.94,19,3,19,0.00
2013-11-18,65,59,52,59,55,50,94,87,76,30.16,30.05,21,4,21,0.00
2013-11-19,64,60,58,57,56,54,96,86,75,30.09,29.96,21,3,21,0.00
2013-11-20,65,61,58,59,57,55,97,86,72,29.98,29.89,21,3,21,0.13
2013-11-21,63,60,57,60,58,56,99,94,85,29.92,29.85,27,5,27,0.60
2013-11-22,59,54,51,56,50,46,98,86,71,29.94,29.82,30,5,30,0.07
2013-11-23,65,57,50,50,47,44,86,70,49,30.08,29.94,21,5,21,0.00
2013-11-24,63,56,49,53,48,44,87,76,55,30.18,30.07,21,3,21,0.00
2013-11-25,66,57,47,58,50,43,93,80,55,30.23,30.15,23,4,25,0.00
2013-11-26,68,58,49,59,51,45,89,77,45,30.18,30.02,19,3,19,0.00
2013-11-27,68,60,54,58,50,43,94,70,54,30.03,29.88,13,2,13,0.00
2013-11-28,65,59,50,58,51,40,87,77,54,30.06,29.89,13,2,13,0.00
2013-11-29,65,59,55,59,54,50,95,85,70,30.17,30.05,11,2,17,0.22
2013-11-30,67,59,53,59,54,49,93,84,57,30.17,30.07,17,3,17,0.00
2013-12-1,71,61,52,61,51,34,93,71,39,30.19,30.08,17,3,17,0.00
2013-12-2,70,61,52,52,39,30,60,45,27,30.10,29.91,15,2,15,0.00
2013-12-3,63,58,52,57,50,36,91,76,47,29.91,29.78,30,6,38,0.00
2013-12-4,60,56,50,52,43,37,79,62,43,29.97,29.81,32,6,32,0.00
2013-12-5,59,54,48,44,40,38,71,60,48,30.10,29.95,23,4,23,0.00
2013-12-6,59,52,48,42,40,38,71,62,49,30.19,30.11,23,5,27,0.00
2013-12-7,59,54,49,54,44,38,94,70,55,30.13,30.02,44,8,44,0.16
2013-12-8,56,51,43,43,40,38,81,67,55,30.19,30.10,23,4,23,0.00
2013-12-9,62,49,42,38,25,7,81,43,14,30.27,30.17,27,4,27,0.00
2013-12-10,64,52,43,43,24,5,65,37,11,30.25,30.08,23,5,23,0.00
2013-12-11,68,56,50,51,35,16,80,48,15,30.16,30.08,17,3,17,0.00
2013-12-12,64,55,47,56,46,33,92,75,31,30.21,30.14,19,3,19,0.00
2013-12-13,60,52,44,53,46,35,97,79,62,30.24,30.13,17,4,17,0.00
2013-12-14,68,56,44,56,41,27,95,62,26,30.28,30.17,17,4,17,0.00
2013-12-15,70,60,50,55,36,22,82,43,20,30.23,30.06,13,3,13,0.00
2013-12-16,78,65,56,53,39,28,76,40,19,30.12,30.04,17,3,17,0.00
2013-12-17,74,62,54,56,46,35,90,57,39,30.12,30.00,11,2,11,0.00
2013-12-18,67,60,57,59,53,44,92,79,56,30.01,29.86,19,5,25,0.00
2013-12-19,58,54,46,52,49,44,95,84,75,29.89,29.73,30,7,30,0.11
2013-12-20,60,52,44,53,48,42,95,86,70,29.95,29.77,21,3,21,0.00
2013-12-21,60,54,49,52,49,46,92,83,69,30.08,29.92,21,3,21,0.01
2013-12-22,63,54,45,56,49,43,94,85,54,30.25,30.07,19,4,19,0.00
2013-12-23,72,58,49,55,46,38,84,63,33,30.28,30.17,25,4,27,0.00
2013-12-24,69,59,50,52,42,35,69,53,36,30.19,30.07,11,2,11,0.00
2013-12-25,79,64,53,55,37,24,64,38,15,30.17,30.07,19,4,19,0.00
2013-12-26,79,63,55,55,29,12,62,30,8,30.14,30.05,19,5,19,0.00
2013-12-27,70,60,50,51,29,17,58,31,17,30.14,30.03,17,3,17,0.00
2013-12-28,68,58,49,59,44,27,96,64,27,30.06,29.93,27,4,27,0.00
2013-12-29,64,54,43,57,46,27,94,77,37,30.14,29.99,21,4,21,0.00
2013-12-30,70,57,46,50,32,14,76,41,13,30.24,30.13,17,3,17,0.00
2013-12-31,62,54,45,56,41,25,96,66,26,30.20,30.09,13,3,15,0.00
2014-1-1,63,53,44,57,50,39,97,88,62,30.13,30.03,17,2,17,0.01
2014-1-2,66,55,45,56,50,39,99,83,59,30.09,29.99,11,2,11,0.01